This is the latest recevied weather packets stored in our database for station/object WD9U. If no packets are shown the sender has not sent any weather packets the latest 10 day(s).
| Time | Temp. | Humidity | Pressure | Rain* | Wind** | Luminosity | Snow |
|---|---|---|---|---|---|---|---|
| 1777689790 | 3.33° C | 55% | 1019.6 hPa | 0 mm | - | 0 W/m² | - |
| 1777689430 | 3.89° C | 54% | 1019.6 hPa | 0 mm | - | 0 W/m² | - |
| 1777689070 | 3.89° C | 52% | 1019.7 hPa | 0 mm | - | 0 W/m² | - |
| 1777688709 | 3.89° C | 51% | 1019.7 hPa | 0 mm | - | 0 W/m² | - |
| 1777688349 | 4.44° C | 50% | 1019.7 hPa | 0 mm | - | 0 W/m² | - |
| 1777687989 | 4.44° C | 49% | 1019.6 hPa | 0 mm | - | 0 W/m² | - |
| 1777687628 | 5° C | 48% | 1019.5 hPa | 0 mm | - | 0 W/m² | - |
| 1777687510 | 5° C | 47% | 1019.5 hPa | 0 mm | - | 0 W/m² | - |
| 1777687268 | 5° C | 46% | 1019.6 hPa | 0 mm | - | 0 W/m² | - |
| 1777686908 | 5.56° C | 46% | 1019.4 hPa | 0 mm | - | 0 W/m² | - |
| 1777686548 | 6.11° C | 45% | 1019.5 hPa | 0 mm | - | 0 W/m² | - |
| 1777686310 | 6.11° C | 44% | 1019.4 hPa | 0 mm | - | 0 W/m² | - |
| 1777686188 | 6.11° C | 43% | 1019.4 hPa | 0 mm | - | 0 W/m² | - |
| 1777685828 | 6.67° C | 42% | 1019.3 hPa | 0 mm | - | 0 W/m² | - |
| 1777685477 | 6.67° C | 40% | 1019.3 hPa | 0 mm | - | 0 W/m² | - |
| 1777685116 | 7.22° C | 39% | 1019.3 hPa | 0 mm | - | 2 W/m² | - |
| 1777684755 | 7.22° C | 39% | 1019.2 hPa | 0 mm | - | 3 W/m² | - |
| 1777684395 | 7.78° C | 38% | 1019.4 hPa | 0 mm | - | 4 W/m² | - |
| 1777684035 | 7.78° C | 37% | 1019.4 hPa | 0 mm | - | 8 W/m² | - |
| 1777683917 | 7.78° C | 37% | 1019.4 hPa | 0 mm | - | 8 W/m² | - |
| 1777683675 | 8.33° C | 36% | 1019.3 hPa | 0 mm | - | 10 W/m² | - |
| 1777683315 | 8.33° C | 36% | 1019.3 hPa | 0 mm | - | 12 W/m² | - |
| 1777682955 | 8.33° C | 36% | 1019.4 hPa | 0 mm | - | 15 W/m² | - |
| 1777682718 | 8.89° C | 34% | 1019.5 hPa | 0 mm | - | 18 W/m² | - |
| 1777682595 | 8.89° C | 35% | 1019.4 hPa | 0 mm | - | 21 W/m² | - |
* Rain latest hour (hover to see other rain measurements)
** Current wind speed in m/s (hover to see current wind gust speed)